Theta_e
296 296 296 296 297 296 297 299 302 304 305 305 305 306 306 306 306 306 307 308 309 309 310 309 310 312 310 308 307 309 310 310 309 308 307 307 307 307 308 308 308 309 308 307 308 309 310 310 311 313 312 311 310 310 311 311 311 312 312 312 314 317 318 313 309 309 309 308 308 307 306 306 308 308 306 307 310 313 315 316 316 313 310 311 313 313 312
296 296 296 296 297 297 297 299 303 304 304 305 305 306 307 306 305 305 306 308 309 308 308 308 309 309 310 308 306 306 307 307 306 307 307 306 305 307 308 307 307 307 307 308 308 308 310 310 309 310 311 310 309 309 311 314 318 317 315 315 315 314 315 312 309 309 309 309 310 309 307 308 309 308 306 306 308 312 314 314 315 314 311 310 313 313 311
296 296 296 296 296 296 297 299 302 304 304 305 305 306 306 306 307 306 306 306 307 305 305 305 306 308 310 308 305 304 306 306 305 306 306 305 304 305 306 305 305 306 307 309 308 306 308 311 309 310 310 309 308 308 308 313 319 317 312 312 313 313 314 313 311 311 311 311 311 310 310 309 308 306 307 307 309 313 314 312 313 313 309 309 312 313 310
296 296 296 296 296 296 296 299 302 303 304 304 305 305 305 306 307 306 306 306 306 304 303 304 305 306 307 307 304 303 305 305 305 305 305 304 304 303 303 302 305 307 308 311 310 306 307 309 308 308 309 309 308 306 307 311 316 316 310 309 314 315 311 309 310 311 311 310 308 306 307 309 308 306 307 308 309 312 315 312 311 312 310 309 311 311 311
296 296 296 296 296 296 296 298 301 303 304 304 304 305 304 304 304 304 304 306 306 305 304 303 304 305 305 304 303 303 303 304 305 305 305 304 303 303 302 301 305 307 308 313 312 307 307 308 307 306 306 307 307 305 305 307 311 315 311 308 316 319 312 309 309 307 305 305 306 305 305 307 308 308 309 310 309 313 316 313 312 312 311 311 311 310 311
296 296 296 296 296 296 296 298 300 302 302 303 304 304 303 303 302 302 303 304 304 305 305 303 304 305 304 303 303 303 302 302 303 303 304 303 302 304 304 302 302 302 304 310 310 307 309 309 307 306 305 306 308 307 307 306 307 313 313 311 316 318 312 310 309 306 305 305 305 306 306 306 305 306 309 310 311 314 315 312 311 312 313 312 310 309 309
296 296 296 295 296 296 296 297 299 301 301 302 303 303 302 302 302 301 302 302 302 302 303 304 304 304 304 303 303 303 303 302 301 301 303 305 302 303 305 302 301 300 302 306 306 305 308 308 306 306 306 307 308 309 309 307 305 309 313 313 315 315 311 309 309 309 308 307 307 307 308 308 306 305 305 306 308 309 309 307 307 309 311 310 308 307 305
296 295 295 295 295 296 296 297 298 300 300 300 301 302 302 302 302 301 301 300 300 301 301 303 305 304 304 304 303 303 302 303 302 300 302 306 303 302 303 303 301 300 301 303 302 301 303 304 304 305 306 307 307 306 306 306 305 307 310 311 312 314 314 312 314 314 311 309 309 309 309 310 309 307 306 308 309 308 307 306 306 308 307 305 306 307 304
295 296 296 295 295 295 295 296 298 299 300 300 300 300 301 301 301 302 301 300 300 300 299 301 303 302 302 303 303 303 302 302 302 300 300 302 301 300 301 302 302 301 302 302 302 300 300 301 302 303 304 304 304 304 304 304 305 306 306 308 311 314 313 312 314 317 314 310 309 309 309 310 310 310 310 312 313 311 308 306 306 308 307 306 308 309 304
295 295 295 295 295 295 295 296 297 300 300 300 300 300 300 300 300 301 301 299 298 298 298 300 301 301 301 302 302 302 301 301 302 303 302 300 300 300 300 302 303 303 303 303 301 300 300 300 301 301 301 301 302 302 302 302 303 305 305 307 309 311 310 309 312 315 312 308 308 309 310 311 312 310 308 307 307 307 306 304 304 305 307 308 310 308 303
296 295 295 295 295 295 295 296 297 299 300 300 300 300 299 299 299 299 300 300 298 297 298 298 299 299 299 300 300 301 301 301 301 302 302 301 300 300 300 302 304 303 302 301 300 300 301 301 301 300 300 301 301 301 302 302 302 302 304 306 308 309 309 310 310 311 309 306 306 308 309 312 310 305 301 302 304 304 305 304 302 302 303 304 305 303 301
296 295 295 295 295 295 295 296 298 299 300 299 299 300 299 299 299 298 299 300 297 297 298 297 297 298 298 298 299 299 299 300 300 300 301 301 300 300 300 301 303 303 301 300 301 302 303 302 303 303 301 301 301 302 303 304 303 301 301 305 308 309 308 307 306 307 307 305 306 308 310 308 305 301 300 302 303 302 302 301 300 301 301 301 301 300 300
296 296 296 295 295 296 296 297 298 299 299 299 299 299 299 298 299 298 298 298 297 296 297 297 296 297 297 297 298 298 298 298 299 299 300 300 301 301 300 300 300 300 300 301 302 303 305 305 305 306 304 302 303 304 303 303 304 303 302 303 308 310 308 305 304 305 305 305 307 309 307 303 301 300 301 302 302 302 304 303 301 300 301 301 301 299 299
296 296 296 295 296 296 296 297 298 299 299 299 299 299 298 298 298 298 297 297 297 296 296 297 297 297 298 297 297 298 298 298 300 301 300 299 300 300 299 299 299 300 301 302 302 303 305 306 306 306 304 304 307 307 304 302 303 304 303 302 305 310 309 307 305 304 303 305 306 304 303 303 302 301 300 301 301 302 303 303 301 299 300 301 300 299 299
296 296 296 295 296 296 296 296 297 298 299 299 298 298 298 297 297 297 297 297 297 297 296 297 297 297 298 297 296 298 298 298 299 301 300 299 299 299 299 299 299 300 301 302 303 304 304 304 304 305 304 305 307 306 305 304 303 303 303 302 303 305 307 308 308 303 301 304 305 304 305 307 305 302 300 300 299 299 301 303 301 299 299 300 300 299 299
296 296 296 296 296 296 296 296 297 298 299 299 298 298 297 297 297 297 297 297 298 298 297 296 296 296 297 297 296 297 298 297 298 300 300 300 299 299 300 299 299 300 301 301 302 304 305 303 302 303 303 303 304 304 304 305 304 303 303 303 304 305 305 306 307 303 301 305 306 306 306 305 302 300 299 299 298 298 301 304 303 299 298 299 300 300 300
296 296 296 296 296 296 296 295 296 297 298 298 298 298 297 297 297 297 297 296 297 297 296 296 296 296 296 297 297 297 297 297 297 298 300 299 298 298 299 299 299 299 300 301 302 303 303 302 301 302 302 301 302 303 303 304 304 304 304 304 305 305 304 304 305 304 302 304 305 303 302 301 299 299 299 298 297 298 302 306 304 299 297 298 299 299 299
296 296 296 296 296 296 296 295 295 296 297 298 298 298 297 297 297 297 296 296 296 296 296 296 296 296 296 297 297 297 297 297 297 297 298 298 297 297 298 298 299 299 299 301 302 301 300 300 301 301 301 300 301 302 302 302 302 303 303 303 303 303 302 302 303 303 303 304 304 302 300 299 298 298 298 298 298 301 305 305 301 297 297 297 297 298 298
296 296 296 296 296 296 296 295 295 295 297 298 298 298 298 297 297 297 296 296 297 297 296 296 296 296 296 296 297 297 296 297 297 297 298 298 298 297 297 297 298 299 299 299 299 298 298 299 299 299 300 300 301 301 300 300 300 300 301 302 302 301 301 301 301 301 301 302 303 302 301 298 297 297 297 298 301 304 302 299 296 297 297 297 297 297 297
296 296 296 296 296 296 296 296 295 295 296 298 298 298 298 298 298 297 296 296 296 296 296 296 296 296 296 296 297 297 297 297 297 297 297 298 297 297 298 298 298 298 298 299 298 297 297 298 298 298 299 299 300 300 299 298 298 299 300 301 300 300 301 301 300 299 299 300 302 304 303 299 297 297 298 299 301 301 298 296 296 297 297 296 297 297 297
297 296 296 296 296 296 296 296 296 295 296 297 298 299 298 298 298 297 296 296 296 296 296 296 296 296 296 296 296 297 297 297 297 297 297 297 297 298 298 298 298 298 297 298 298 297 297 298 298 298 298 298 299 299 299 298 298 297 298 299 299 300 301 301 300 299 300 302 302 301 300 297 297 298 299 299 298 297 296 297 298 297 297 297 297 297 297
296 296 296 296 296 296 296 296 296 295 296 297 298 298 298 298 298 298 297 296 297 296 296 296 296 296 296 296 296 296 296 296 297 296 297 297 297 297 298 298 298 298 297 297 297 297 297 297 297 297 298 298 298 298 297 298 298 297 297 298 299 299 300 300 300 298 299 300 299 297 297 297 297 298 298 297 297 297 297 298 298 297 297 297 297 297 297
296 296 296 296 296 296 296 296 296 295 296 296 297 298 299 299 298 298 297 297 297 296 296 296 296 296 296 296 296 296 296 296 296 296 297 297 297 297 297 298 298 297 297 297 298 298 298 297 297 297 298 297 297 297 297 297 297 297 297 297 298 298 297 298 299 298 297 298 298 298 298 298 297 297 297 297 297 298 298 297 297 298 297 297 297 297 297
296 296 296 296 296 296 296 296 296 296 296 296 297 297 298 299 299 298 298 298 297 297 296 296 297 297 296 296 296 296 296 296 296 296 296 297 297 297 296 296 297 297 297 297 297 297 297 297 296 296 297 297 296 297 297 297 297 297 296 296 297 296 297 298 299 298 297 298 298 298 298 298 297 298 298 298 298 297 297 297 297 297 296 296 296 296 296
295 296 296 296 296 296 296 296 296 297 296 296 296 296 297 298 298 299 299 298 297 297 297 297 297 296 296 295 296 296 296 296 296 296 296 296 296 296 296 295 296 296 296 296 297 297 296 296 296 296 297 296 296 296 296 296 296 296 296 297 297 296 297 298 297 296 297 298 298 298 297 297 297 297 298 298 297 297 297 296 296 296 296 296 296 296 296
295 296 296 296 296 297 296 295 296 297 298 297 295 295 297 298 298 298 298 298 297 297 297 297 297 296 296 296 296 296 296 296 296 295 295 296 295 295 295 295 295 295 296 296 296 296 296 295 296 297 297 296 296 296 295 296 295 295 296 296 296 296 297 297 297 297 297 297 297 297 297 297 297 297 297 297 297 297 297 297 296 296 296 296 296 296 296
296 296 296 296 296 296 296 295 296 297 298 298 296 295 295 297 297 298 298 297 298 298 297 297 297 296 296 296 296 296 296 296 296 296 295 296 296 295 296 295 295 295 295 296 296 296 296 295 295 296 296 295 295 295 295 295 295 296 296 296 295 296 296 296 296 297 297 297 298 297 297 297 298 297 297 297 297 297 296 296 296 296 296 296 296 296 296
296 296 296 296 296 296 296 295 296 297 298 298 298 295 294 295 297 297 296 297 297 298 297 297 297 297 296 296 296 296 296 296 296 296 296 296 296 296 295 295 295 295 295 296 296 295 296 295 295 295 295 295 295 295 295 295 295 296 296 296 296 296 296 296 296 297 297 297 298 297 296 296 297 297 297 296 296 296 296 296 296 296 296 296 296 295 295
297 296 296 296 296 296 296 295 296 297 297 297 298 297 295 294 295 296 296 296 297 297 296 297 297 297 297 297 297 296 297 297 297 297 297 296 296 296 295 295 295 295 295 295 295 295 295 295 294 295 295 295 295 295 294 294 295 295 296 296 296 296 296 295 296 297 296 296 297 297 296 296 296 296 296 296 296 296 296 295 296 295 295 296 295 295 294
296 296 296 296 296 296 296 295 295 295 295 295 296 296 295 295 295 295 295 296 296 296 296 297 298 297 297 297 297 296 297 297 296 296 296 296 296 296 295 295 295 295 295 294 295 295 294 294 294 295 296 295 294 294 294 294 294 295 296 296 295 296 295 295 295 296 296 296 297 296 296 295 295 296 296 296 296 296 295 295 295 295 295 295 295 294 293
296 296 296 296 296 296 296 295 295 295 294 295 295 295 295 296 295 294 295 296 296 296 296 296 297 297 296 296 297 297 297 296 296 296 296 296 296 296 295 295 295 295 295 295 295 294 294 294 294 295 296 296 294 294 295 294 294 295 296 296 296 296 295 295 296 296 296 296 296 296 296 295 295 296 295 295 295 295 295 295 295 295 295 294 294 293 293
296 296 296 296 296 296 296 295 295 296 295 296 297 296 296 296 296 294 295 295 296 296 296 296 296 296 296 296 296 296 297 297 297 296 296 296 296 296 296 295 295 295 295 295 295 294 293 293 293 294 295 296 295 295 295 294 294 295 296 296 296 296 296 296 296 296 296 296 296 296 296 295 295 295 295 295 295 295 295 295 295 294 294 293 293 292 291
296 295 296 296 296 296 296 296 296 297 297 297 298 297 296 296 295 295 294 295 296 296 297 297 296 295 295 296 297 296 297 297 297 296 296 296 296 296 296 295 295 295 295 295 294 294 294 294 293 294 295 295 295 294 295 295 295 296 296 295 296 296 296 296 296 296 296 296 296 296 296 295 295 295 295 295 295 295 295 294 294 293 293 292 292 292 291
296 295 296 297 296 296 296 297 297 298 298 298 298 297 296 296 295 295 294 295 296 297 297 297 296 296 296 296 297 296 297 297 297 296 296 296 296 295 295 295 295 294 295 295 294 294 294 294 294 295 295 294 293 294 294 295 296 296 295 295 296 296 296 296 296 296 296 296 296 296 295 295 295 295 295 295 295 295 294 294 294 293 292 292 292 292 291
296 296 296 297 297 297 296 297 297 298 298 298 298 297 297 296 295 294 294 294 295 296 297 296 296 296 296 297 297 297 297 297 296 296 296 296 296 295 295 295 295 294 295 294 294 293 294 294 294 294 293 293 294 295 295 296 296 296 295 295 295 296 296 296 296 296 296 296 296 296 295 295 294 295 295 295 295 295 294 294 293 292 292 292 292 292 292
296 296 296 297 297 297 298 298 298 298 298 298 298 297 296 296 294 294 294 294 294 294 295 295 295 295 296 296 296 296 296 296 296 296 296 296 296 295 295 295 294 294 293 293 293 293 294 294 294 293 292 292 295 296 296 296 296 296 295 295 295 296 296 296 296 296 296 296 296 295 295 295 295 295 295 295 295 295 294 293 292 292 292 292 293 293 293
296 296 297 297 297 297 298 299 299 298 298 299 298 297 296 296 295 295 294 295 295 295 295 295 295 295 295 295 295 295 296 297 296 296 296 296 295 295 294 294 294 293 293 293 293 293 294 294 294 293 293 294 295 295 295 295 295 295 295 295 296 296 296 296 296 296 296 295 295 295 295 295 295 295 295 295 295 295 294 293 292 292 292 293 294 294 293
297 297 298 298 298 298 298 299 299 299 299 298 297 297 296 296 296 296 296 296 297 296 296 296 296 295 294 295 295 296 296 296 295 295 296 295 295 294 294 293 293 293 292 292 292 292 293 293 292 292 293 295 295 295 295 295 296 296 296 296 296 296 296 296 296 296 295 295 295 294 294 294 295 295 295 295 295 294 294 293 292 292 293 294 294 293 292
297 297 297 298 297 297 298 298 297 297 297 297 296 296 297 297 297 296 297 297 298 298 297 297 297 296 296 296 296 296 296 296 296 295 295 295 295 294 293 293 293 292 292 292 292 292 293 292 290 290 293 295 295 294 294 295 296 297 296 296 296 296 296 296 296 296 295 294 294 294 294 294 294 295 295 295 294 294 293 293 293 293 293 293 292 292 291
295 295 296 296 296 296 296 296 296 296 296 296 296 296 297 297 296 296 296 297 297 297 297 298 297 296 296 297 296 296 296 296 296 296 295 295 294 294 293 293 292 292 292 292 292 292 293 292 290 290 293 295 295 294 294 295 296 297 296 296 296 296 296 296 296 296 295 294 294 295 295 294 294 295 295 294 294 293 293 293 293 293 293 292 291 291 290
295 295 296 296 296 296 296 295 296 296 296 296 296 296 295 295 295 294 295 296 296 296 296 296 296 296 296 296 296 296 296 296 296 296 295 295 294 294 293 292 292 291 292 292 291 291 292 292 291 291 293 294 294 294 294 295 297 297 296 296 297 297 296 296 295 294 294 294 295 295 294 294 294 294 294 293 293 293 293 293 293 293 292 292 292 291 290
295 296 296 296 296 296 296 296 296 296 296 296 296 295 293 294 295 295 295 295 295 295 296 296 296 296 296 296 295 296 296 296 296 296 296 294 294 294 293 291 291 292 292 291 291 291 292 292 292 293 294 294 294 295 295 295 297 297 297 297 297 296 296 295 294 294 294 294 294 294 294 294 294 294 293 293 293 293 293 293 293 292 292 292 292 291 290
296 296 296 296 296 296 296 297 296 296 295 296 296 296 295 294 294 294 295 295 295 296 297 297 296 296 296 296 296 296 296 296 296 296 295 294 293 293 293 292 292 292 292 291 291 292 293 292 292 294 294 294 295 295 296 296 296 297 297 297 296 295 295 295 294 294 294 294 294 294 294 294 294 294 294 294 294 293 293 293 292 292 292 292 291 291 290
296 295 296 296 296 295 296 296 295 295 295 295 296 296 296 296 294 294 295 296 296 297 297 296 296 296 296 296 296 296 297 297 297 296 295 293 293 293 293 293 292 291 291 292 292 292 291 291 292 293 294 294 295 296 296 296 296 297 297 297 296 296 295 295 295 295 294 294 294 294 294 294 294 294 294 294 294 293 293 292 292 292 292 291 291 291 289
296 295 295 296 296 295 295 295 295 294 294 295 295 295 295 296 295 295 296 296 296 296 296 296 296 296 297 297 297 297 297 296 296 295 294 293 292 293 293 292 291 291 291 293 293 291 290 292 293 294 294 295 296 296 296 296 296 296 297 297 297 296 296 296 295 295 295 295 295 295 295 294 294 294 294 294 293 292 292 292 292 292 292 291 291 290 288
296 295 295 296 296 295 294 295 295 295 294 294 295 295 295 295 295 295 296 296 296 296 296 296 296 296 297 297 297 296 296 295 295 294 293 293 293 293 292 291 292 292 292 293 294 293 293 294 294 294 295 296 296 296 296 296 296 296 296 297 297 297 297 296 296 296 296 295 295 295 295 294 294 294 294 293 292 292 292 292 292 292 292 291 291 289 287
296 295 295 296 297 295 294 294 295 295 294 295 295 296 295 295 295 295 296 296 296 296 296 296 296 296 296 296 295 295 294 294 294 294 293 293 294 294 292 292 294 294 293 294 295 294 294 294 294 294 295 296 296 296 296 296 296 296 296 296 296 297 297 297 297 296 296 296 296 295 295 295 295 294 293 292 292 292 292 292 292 292 292 291 290 288 286
296 295 295 296 296 294 294 294 295 295 295 295 295 295 295 295 295 296 296 296 296 296 296 296 296 296 295 295 294 294 294 293 294 294 294 293 294 294 294 295 295 293 292 293 294 294 294 294 294 294 295 296 296 295 295 295 295 296 296 296 296 296 296 296 296 297 297 296 296 296 295 295 295 295 294 293 292 292 292 292 292 292 292 292 291 289 287
296 296 296 296 295 294 294 295 295 295 295 295 295 295 295 295 295 296 296 296 296 296 296 296 296 295 295 294 294 294 293 294 294 293 293 293 294 294 294 295 296 294 292 292 293 294 294 295 295 294 295 296 296 295 295 295 295 295 295 296 296 296 296 296 296 296 296 296 296 296 296 295 295 295 295 293 292 292 292 293 292 292 292 292 291 290 288
296 296 296 296 295 294 294 295 295 295 295 295 295 295 295 295 295 296 296 296 296 296 296 296 296 295 295 294 294 294 294 293 293 293 293 294 294 293 293 294 295 294 293 292 293 294 295 295 295 295 295 295 295 296 296 296 296 296 296 296 296 296 296 296 296 296 296 295 296 296 296 295 295 295 295 294 293 292 292 293 293 292 292 291 291 291 290
296 296 296 296 296 295 294 294 295 295 295 295 295 295 295 295 296 296 296 296 296 296 296 295 295 295 295 295 295 294 294 293 292 292 293 293 292 292 293 294 294 294 294 294 294 295 295 295 295 295 295 295 295 296 296 296 296 296 295 295 295 295 296 296 296 296 295 295 295 295 295 294 294 295 295 295 294 293 293 293 292 292 292 291 291 292 291
296 296 296 296 296 295 295 295 295 295 295 296 296 295 295 295 295 295 295 295 295 296 296 295 295 295 295 295 295 294 294 294 293 293 292 292 291 293 295 295 295 295 295 295 295 295 295 295 295 295 295 295 295 295 296 296 296 296 296 296 296 295 295 296 296 296 295 295 294 294 294 294 294 295 295 295 295 295 294 293 292 292 292 292 292 292 292
Wind_Speed
23 24 25 27 27 27 28 27 27 26 23 23 17 11 14 12 7 12 9 2 7 6 2 2 2 1 3 2 1 3 2 1 3 3 3 2 1 1 1 0 1 1 1 1 1 1 1 0 1 1 3 2 3 7 5 4 4 1 1 1 0 1 1 2 2 0 2 2 2 0 2 1 1 3 2 1 1 1 1 1 2 3 3 2 2 3 3
23 25 26 27 27 27 27 25 25 25 22 22 17 9 10 10 10 16 16 6 5 3 1 2 1 2 5 3 4 5 2 3 4 1 3 4 2 2 1 1 1 1 1 0 1 0 0 1 2 1 2 2 2 9 9 7 4 2 1 1 1 1 0 1 4 3 1 1 2 2 1 0 1 2 1 1 3 4 2 1 2 2 2 2 3 3 3
23 25 26 27 28 27 27 24 23 23 21 18 15 8 6 5 6 12 18 17 13 8 3 2 2 2 3 3 6 6 2 5 6 4 4 5 3 1 1 2 2 2 1 1 3 3 1 1 2 1 2 1 2 8 10 8 6 5 8 6 2 1 1 1 2 5 5 4 3 1 1 1 1 1 1 1 3 4 3 2 2 3 3 1 1 3 4
23 25 26 27 28 28 27 24 22 22 20 15 13 11 6 4 3 5 11 18 20 15 12 7 2 2 1 2 5 6 3 4 6 6 6 7 5 3 3 4 2 2 2 1 3 4 2 1 2 2 3 1 2 7 9 7 8 12 17 15 7 2 2 3 3 1 2 1 1 2 2 1 1 1 2 3 1 1 3 2 2 3 5 3 1 3 7
23 25 26 27 28 28 27 25 21 21 19 13 12 14 9 4 3 3 4 8 11 11 15 14 6 2 2 2 4 7 5 3 5 6 6 7 6 3 4 7 4 2 2 1 3 4 4 4 4 3 3 2 3 6 7 8 8 8 11 11 7 3 2 3 6 6 4 2 0 1 3 4 3 3 3 4 5 2 2 3 1 2 5 3 1 4 6
23 24 26 27 28 28 27 26 22 20 20 14 12 15 12 5 3 3 2 2 3 5 8 10 8 7 6 3 3 8 8 7 6 5 4 6 8 4 4 9 9 4 2 1 2 4 3 5 4 3 4 3 3 4 5 8 12 7 3 4 4 4 1 1 3 5 6 6 4 4 7 6 5 6 5 5 6 5 4 4 1 0 1 2 6 7 6
22 24 25 26 28 28 27 26 22 21 19 15 14 15 10 5 5 6 6 4 3 4 5 7 7 10 8 4 5 8 10 10 6 5 3 3 8 7 3 6 10 9 5 2 3 4 3 3 3 3 4 3 2 3 2 5 12 8 3 3 2 4 1 0 2 3 7 9 7 5 6 5 5 8 7 6 7 8 8 5 3 5 7 6 11 12 8
22 23 24 26 27 27 27 25 23 22 19 17 19 18 10 6 5 5 7 8 7 8 7 6 4 7 7 5 5 7 9 9 7 6 5 3 6 7 4 4 6 7 9 7 5 4 4 2 2 2 2 2 3 3 1 3 8 7 3 2 2 2 2 2 3 4 4 6 7 7 7 6 5 5 5 4 7 8 7 5 4 7 9 7 10 12 8
21 23 24 25 25 26 26 25 23 23 21 20 23 20 13 9 7 5 5 4 7 8 7 5 2 4 6 5 5 6 8 10 7 3 6 7 5 6 5 5 4 3 9 10 6 4 4 4 6 5 3 3 3 2 2 2 5 5 3 2 1 2 3 2 3 2 2 2 3 4 6 7 5 3 3 4 4 4 4 3 1 1 7 9 8 7 5
21 22 23 24 24 24 25 23 22 22 22 23 23 21 16 11 8 7 5 3 7 6 4 4 4 3 4 5 4 4 5 9 7 2 4 8 9 8 6 4 2 4 9 10 9 12 11 10 11 9 8 7 7 5 4 3 2 2 2 1 1 2 5 5 4 4 2 2 3 2 3 3 3 2 2 3 3 4 3 3 4 3 3 6 3 4 8
21 22 22 23 24 23 22 21 21 22 22 23 22 21 19 14 8 6 3 3 6 7 3 4 5 2 6 7 4 2 5 9 8 4 3 6 10 12 11 7 3 3 6 11 15 16 13 9 6 4 5 6 4 2 1 2 2 1 1 0 1 3 5 5 3 3 4 5 4 3 3 4 2 2 2 3 1 3 4 4 5 4 2 3 5 8 10
20 21 22 23 23 22 21 19 19 21 22 22 21 20 19 16 11 8 6 4 4 6 3 4 4 2 6 9 5 3 6 7 6 4 2 3 8 13 15 12 5 3 11 16 16 11 5 1 2 2 1 1 3 6 9 9 7 4 2 1 2 4 4 2 2 2 4 5 5 4 5 3 3 5 3 3 2 6 10 10 8 5 5 9 12 11 10
20 21 22 22 23 22 20 18 17 18 19 18 19 19 18 16 11 9 8 6 2 4 1 2 6 7 7 8 7 5 7 8 6 4 2 3 7 11 14 11 6 10 17 17 13 8 1 1 1 1 1 1 3 5 10 10 8 7 6 4 2 3 3 2 2 2 3 4 5 4 2 2 4 4 3 4 6 6 8 9 8 6 4 8 12 12 11
19 20 21 22 22 21 19 17 16 16 17 16 16 17 17 16 11 8 10 8 2 4 4 1 6 10 9 8 7 4 6 10 7 4 5 7 7 9 14 16 13 14 16 12 9 6 2 1 1 1 1 0 1 1 4 5 6 8 8 6 3 2 2 2 2 1 2 3 3 1 1 2 1 3 2 3 3 1 1 4 4 4 3 5 12 13 12
18 19 20 21 20 19 19 17 15 15 15 15 15 16 16 16 13 9 11 11 5 6 10 5 5 8 7 8 9 5 4 6 5 4 6 8 7 9 14 18 16 14 12 7 4 3 1 0 1 1 1 0 1 0 1 1 3 5 6 6 5 3 2 1 2 0 1 2 2 1 0 2 3 4 2 1 1 1 1 2 3 2 1 6 10 11 11
17 18 19 19 19 18 18 17 14 13 14 14 14 15 15 16 15 10 10 10 6 3 9 8 7 7 5 6 9 7 3 3 3 3 4 6 10 13 15 15 14 13 11 6 3 3 1 1 1 1 1 1 0 1 2 1 1 2 4 7 8 6 4 2 2 1 1 2 3 3 2 0 1 2 1 3 3 2 2 2 3 3 3 6 9 9 8
15 16 18 18 18 17 17 17 14 11 12 13 14 16 16 15 15 14 17 20 15 7 7 10 11 10 6 5 7 7 4 4 3 1 2 4 8 13 17 17 15 16 14 5 1 3 3 2 2 1 2 2 2 1 1 2 2 3 4 6 7 6 4 2 2 1 1 1 1 1 1 1 2 2 3 5 3 2 3 4 4 5 6 8 9 8 7
14 15 16 17 17 16 16 17 16 11 11 12 12 16 17 15 14 14 17 20 16 8 10 14 14 12 8 6 7 7 6 5 2 1 2 2 4 10 15 15 13 14 13 5 1 3 3 2 2 2 2 2 2 1 2 2 2 3 4 3 4 3 3 1 1 2 1 1 1 0 1 1 1 4 6 4 1 4 4 2 4 7 8 9 10 9 9
13 14 15 16 17 16 15 17 17 13 11 11 11 14 16 16 15 14 17 19 15 9 10 14 15 15 13 12 12 11 10 9 7 3 1 2 7 11 9 6 9 11 9 4 2 2 2 2 2 1 2 3 2 1 2 2 2 3 2 2 2 2 2 2 1 2 1 1 2 0 1 1 1 4 4 2 2 3 1 4 9 11 11 11 11 9 9
12 12 13 14 15 15 14 15 17 15 11 10 11 12 13 14 13 13 16 19 18 14 12 13 14 15 15 15 14 13 13 12 11 6 1 3 12 11 2 3 8 9 6 4 3 2 2 2 1 1 1 2 2 1 2 2 2 3 2 1 2 2 1 1 1 1 1 2 2 1 1 1 3 3 1 2 1 3 7 10 12 13 12 11 9 7 7
11 11 11 12 14 14 13 13 15 15 12 10 9 10 12 13 13 12 12 14 14 13 11 11 12 13 13 14 14 14 13 12 12 10 5 6 12 9 2 0 6 5 3 3 2 1 1 1 1 1 1 1 1 0 1 2 2 3 2 1 2 3 2 1 1 1 0 1 2 1 1 3 4 2 2 5 7 12 13 11 11 11 9 8 7 6 5
9 10 10 11 12 13 12 12 13 14 12 10 7 7 9 11 11 10 11 12 13 12 10 10 11 11 11 11 12 13 13 12 13 13 10 8 11 11 6 2 4 4 3 3 1 1 1 1 1 1 1 2 2 1 1 0 1 2 3 1 2 3 2 1 2 2 2 2 3 2 2 4 6 8 10 12 13 13 11 10 10 8 6 5 6 5 3
7 8 9 9 11 11 10 10 11 13 12 10 7 6 7 7 8 8 8 11 13 12 10 9 9 10 11 12 11 11 11 11 12 13 11 8 8 9 9 7 5 4 4 4 2 1 1 1 1 1 1 2 2 1 2 2 2 2 2 2 2 2 1 1 2 4 5 5 5 3 3 7 12 13 13 12 11 9 8 8 7 5 4 4 3 3 2
5 6 7 7 9 10 9 8 8 10 12 11 9 6 4 4 5 5 5 6 8 8 7 9 9 9 11 12 11 10 10 11 10 11 12 11 8 6 8 9 8 6 6 6 4 1 1 1 0 0 1 1 1 1 2 2 2 1 1 2 1 1 2 2 3 4 3 3 2 1 3 6 8 8 9 9 8 7 5 5 4 4 3 3 3 3 4
4 4 5 6 7 8 8 6 6 7 9 10 9 7 4 3 4 4 3 4 6 5 3 5 8 9 9 10 12 10 9 10 10 9 9 11 11 9 8 9 10 8 8 8 6 4 3 2 1 1 2 1 1 1 1 1 1 1 1 1 1 2 3 3 3 1 1 2 4 3 2 1 2 4 6 6 5 5 4 3 2 2 2 2 3 4 5
3 2 3 4 5 6 6 5 5 6 6 8 8 7 5 5 5 5 4 4 6 5 2 2 5 7 7 8 10 10 9 9 9 8 7 7 9 10 9 9 9 8 8 8 7 6 4 2 1 2 2 1 2 1 1 1 1 0 1 1 1 1 1 2 2 3 3 3 3 4 3 3 5 7 6 5 5 5 4 2 1 0 1 2 4 5 7
4 3 2 2 3 4 4 3 4 5 5 6 7 7 6 6 4 4 4 3 3 3 2 1 3 5 6 7 8 8 8 8 7 6 6 6 6 7 8 8 7 7 7 6 6 6 4 2 2 2 2 1 2 2 1 1 1 0 1 2 0 1 2 3 2 3 2 2 6 9 4 1 5 10 9 7 6 5 4 3 2 2 3 5 6 6 7
4 5 4 2 2 2 2 2 3 4 4 5 5 6 6 5 5 5 5 5 4 3 2 1 1 2 4 6 7 7 8 8 6 5 5 5 6 7 8 7 6 6 7 5 4 3 3 2 2 1 1 1 1 1 1 1 1 1 1 1 1 1 5 4 2 2 1 2 11 14 4 4 3 9 10 8 7 6 5 4 4 5 5 6 6 6 6
4 5 6 4 2 1 1 2 3 3 3 3 4 4 5 5 6 6 5 5 5 4 3 3 2 2 3 4 6 8 9 8 6 6 5 4 5 7 8 7 6 6 6 5 3 2 2 1 1 1 1 1 1 0 1 1 0 1 1 0 1 3 7 4 1 2 2 2 13 15 4 5 4 7 8 7 6 5 6 6 6 6 6 6 5 5 6
5 6 7 5 2 2 3 3 4 3 2 2 2 3 3 4 5 6 5 4 4 3 3 3 2 2 3 4 5 7 9 8 7 7 5 4 4 6 7 6 5 5 4 4 3 2 2 2 2 2 2 2 1 1 1 1 0 1 1 3 2 5 7 5 4 4 4 5 11 13 5 3 4 5 5 5 5 5 6 6 6 6 6 5 6 6 6
6 5 7 5 3 3 5 5 4 4 3 3 3 2 2 2 4 5 5 4 3 3 3 2 2 2 2 3 4 6 7 8 8 7 5 4 5 6 5 4 4 3 3 2 2 2 1 1 1 1 2 2 2 1 1 1 1 1 2 6 5 4 5 5 5 6 7 8 11 10 6 3 4 4 4 4 5 5 5 5 5 5 5 5 6 6 6
5 4 6 5 3 4 6 6 5 4 4 4 4 4 3 3 4 4 3 3 3 2 2 2 2 1 1 1 2 4 6 7 8 8 6 7 8 6 4 4 4 3 2 1 1 2 1 1 1 1 1 1 1 1 1 1 1 1 2 5 7 5 4 4 4 5 6 7 8 7 5 4 4 3 3 3 3 4 4 3 3 4 4 5 5 5 5
4 2 4 4 3 4 7 6 5 4 3 2 3 5 5 5 5 3 1 1 2 3 3 2 2 0 1 0 1 4 5 5 8 8 8 9 10 7 4 5 3 2 3 2 1 1 1 1 1 1 1 2 2 1 1 1 4 4 3 3 7 7 6 4 4 4 5 4 4 3 3 3 3 3 3 3 3 3 3 3 3 3 4 4 4 4 5
4 0 3 3 3 4 6 6 5 3 1 1 3 5 6 6 5 2 1 1 2 3 3 3 2 1 1 1 1 3 4 5 6 7 7 9 10 8 6 5 3 2 3 3 1 1 1 1 1 0 1 2 2 0 2 3 5 6 5 3 6 8 8 6 5 5 4 4 4 2 1 1 2 3 4 3 3 3 3 3 3 3 3 4 5 5 6
5 2 3 4 3 4 4 4 4 3 1 1 2 5 7 6 3 1 2 2 2 2 2 2 2 1 1 1 0 2 4 4 5 5 6 8 9 7 6 5 2 2 3 3 1 0 1 1 1 0 0 2 2 1 2 3 5 5 5 5 7 9 9 7 6 6 6 5 5 3 2 2 3 3 4 4 4 4 4 3 3 4 4 4 4 5 6
5 4 3 3 3 2 2 2 3 3 2 2 3 7 8 4 1 1 2 2 1 1 2 2 2 1 1 1 0 2 3 3 4 5 5 6 6 6 6 4 1 2 5 3 1 1 1 1 1 1 0 0 1 3 4 6 7 6 6 5 6 9 8 5 4 5 6 6 6 5 4 4 4 4 5 6 5 6 5 4 4 5 4 4 5 6 8
5 4 3 2 1 1 0 1 2 3 3 3 4 7 6 2 1 2 2 1 1 2 2 2 2 1 1 1 1 2 2 4 4 4 4 5 4 4 4 3 1 3 4 1 1 2 2 1 1 0 1 2 4 5 7 9 9 9 7 5 5 8 9 7 5 4 5 5 5 6 5 6 6 6 7 7 7 7 6 5 5 5 4 5 7 9 10
3 3 1 1 1 1 1 1 2 2 2 3 5 4 3 2 2 2 1 1 1 1 2 1 1 1 2 1 1 2 2 3 3 2 3 5 4 2 3 2 2 3 2 1 1 3 3 1 1 0 2 5 6 6 9 9 7 7 6 4 5 7 10 10 7 5 4 4 5 6 6 7 8 8 8 8 8 7 6 5 5 4 5 7 9 10 10
2 1 1 1 1 1 2 2 2 3 4 4 2 0 1 2 2 1 2 3 2 1 2 3 2 0 1 1 1 2 2 2 2 1 2 3 2 2 2 2 2 2 1 0 1 3 2 1 1 1 2 3 3 6 11 10 5 3 5 7 7 7 8 9 7 5 3 3 3 4 5 6 7 7 8 8 8 7 6 5 3 4 6 7 8 9 10
3 2 1 1 1 2 3 3 3 2 1 0 2 1 1 3 2 1 2 2 1 2 3 3 2 2 2 2 1 1 2 2 1 1 1 1 1 1 1 1 1 2 1 1 2 3 2 0 1 1 1 2 3 9 12 9 3 2 6 9 9 7 7 7 6 4 4 3 3 3 4 4 4 6 8 8 8 7 6 4 3 4 5 6 8 9 10
4 4 3 3 2 1 1 2 2 3 3 2 2 2 2 2 2 2 2 1 1 2 3 3 3 3 3 2 1 1 1 1 2 2 1 1 1 1 1 0 1 1 1 1 3 2 1 0 1 1 2 4 7 11 11 7 1 3 6 9 8 7 7 7 5 3 2 1 3 4 4 3 4 7 8 8 7 6 5 4 4 4 4 6 8 9 10
5 4 4 2 2 3 3 3 4 3 2 2 2 1 1 1 1 2 2 2 0 2 3 3 2 2 3 4 3 2 1 1 2 2 2 1 1 1 0 1 1 1 1 2 3 2 0 1 1 2 4 6 9 11 9 5 2 4 6 7 7 8 8 7 5 3 1 1 3 4 3 3 5 7 8 7 5 5 5 4 5 5 6 7 9 9 10
4 4 2 2 2 2 3 3 3 3 2 2 2 1 1 2 1 1 1 1 1 1 3 3 1 0 2 2 2 2 1 1 1 1 1 0 0 1 1 1 1 1 1 1 1 1 0 1 1 3 6 9 10 9 8 4 1 5 7 7 7 7 7 7 5 4 2 1 3 4 3 4 6 7 7 6 5 5 5 5 6 7 8 8 8 9 10
4 3 1 1 2 2 1 1 3 2 1 1 1 1 0 1 1 1 1 2 2 3 4 3 0 0 1 1 0 0 0 0 1 1 1 0 1 1 1 0 1 1 1 1 0 0 1 2 4 6 9 9 8 9 9 7 2 4 8 8 8 8 7 7 6 5 3 1 2 3 3 4 6 8 8 7 6 6 6 6 6 8 8 7 7 8 9
4 3 2 1 2 3 1 0 2 2 1 0 0 2 2 0 0 1 1 3 4 5 5 4 2 1 1 1 1 1 0 0 1 1 1 0 1 0 1 0 0 1 1 1 1 1 1 2 3 5 6 5 7 9 10 9 6 2 5 8 9 8 8 8 8 7 5 4 2 3 3 4 6 8 9 8 7 7 6 5 6 7 7 7 7 8 8
3 3 3 1 1 2 1 1 1 1 1 2 1 2 2 1 1 1 3 4 5 5 6 5 4 3 2 1 1 1 0 1 1 0 1 1 0 1 1 0 0 1 1 1 1 2 2 2 3 4 3 2 6 7 7 8 8 6 4 6 8 9 9 10 10 10 9 8 6 5 4 4 5 7 8 9 9 8 7 6 6 7 7 7 7 8 8
2 2 3 2 0 1 1 1 1 1 2 3 3 2 1 1 2 2 3 3 4 5 5 4 2 2 1 0 1 1 1 0 1 1 1 1 1 0 1 1 1 0 1 1 3 3 3 4 5 5 3 2 4 5 5 6 7 8 8 8 7 8 9 10 11 12 12 11 11 9 7 6 6 7 9 11 12 10 8 7 7 7 7 7 7 8 7
1 1 2 1 1 1 0 2 3 3 4 5 4 2 1 1 3 3 2 2 4 5 5 3 1 0 1 1 0 0 0 1 1 1 1 1 0 1 1 1 2 1 2 3 3 3 3 5 7 6 4 4 5 5 6 7 8 9 10 10 9 9 11 12 12 13 13 12 11 11 10 8 7 7 8 11 13 12 10 8 7 7 7 7 7 8 8
1 1 2 2 2 2 2 2 2 1 4 6 4 1 0 2 4 4 2 1 3 5 5 3 1 1 1 1 0 0 0 0 0 0 0 1 1 1 1 0 1 2 2 2 3 4 5 7 8 7 7 7 6 5 7 9 10 10 11 11 10 10 12 13 14 14 13 12 10 10 9 9 8 8 8 10 12 12 11 8 7 7 6 7 7 7 8
0 0 2 2 2 2 3 3 1 0 2 4 3 2 2 4 5 4 2 2 3 4 3 2 1 1 1 0 0 1 1 1 1 1 0 1 1 1 1 2 3 2 2 3 6 7 7 8 9 9 9 9 9 7 8 10 11 12 13 12 10 10 11 13 14 14 13 11 9 8 9 9 10 9 9 10 10 11 11 10 8 7 7 6 6 7 7
1 2 2 3 3 3 4 3 1 1 2 3 4 4 4 5 6 4 3 4 4 3 1 1 1 1 1 1 1 0 1 2 1 1 1 2 2 2 2 3 4 4 6 10 11 11 11 12 14 14 14 12 11 11 11 12 13 14 15 14 12 10 10 11 12 13 13 11 8 8 9 9 9 9 8 9 10 11 13 12 10 8 7 6 6 6 7
2 2 2 3 5 6 6 5 4 4 5 6 5 5 5 7 7 6 5 5 4 2 2 2 1 1 1 1 1 1 1 1 1 1 1 2 2 3 4 6 8 10 13 16 16 16 16 17 17 18 18 17 14 13 13 14 15 16 16 14 12 10 10 11 12 13 14 13 11 9 8 7 8 9 9 10 12 13 14 14 13 11 9 7 6 6 7
Wind_Direction
4 6 9 10 10 8 7 4 0 1 5 8 15 42 47 50 56 23 21 34 5 19 137 354 6 196 321 314 308 335 359 345 321 11 20 344 4 341 245 218 233 213 256 253 206 250 245 102 303 128 91 70 351 340 348 100 97 32 73 68 109 147 98 94 102 3 297 283 261 270 44 71 90 59 73 151 128 102 151 174 153 150 156 153 163 176 141
5 7 10 11 12 11 10 8 5 5 5 4 11 44 63 55 54 42 37 19 350 29 96 335 342 303 323 358 14 357 32 22 350 31 29 6 9 324 301 70 7 326 350 80 90 283 242 39 1 33 83 118 34 8 23 77 81 8 102 153 199 175 65 114 133 137 157 204 212 212 157 171 57 77 91 132 102 103 113 99 117 162 172 175 185 171 124
8 9 11 14 14 14 13 13 10 10 9 5 12 40 60 44 44 36 37 48 59 63 34 302 255 318 335 25 18 357 355 25 31 71 49 24 25 340 335 354 335 346 46 83 48 28 18 25 3 26 46 78 32 16 29 68 94 86 79 70 57 113 81 72 167 174 179 181 181 192 182 145 35 77 90 51 112 126 132 134 165 186 173 163 194 142 126
12 11 13 15 16 16 17 16 15 16 14 12 27 49 51 36 36 4 19 44 54 48 32 16 316 293 4 45 16 356 327 358 30 59 52 31 25 31 17 351 324 6 33 87 53 19 6 50 60 38 9 356 351 4 23 63 90 92 81 73 74 91 60 29 15 100 162 150 110 329 312 130 93 36 33 17 355 133 114 128 193 176 148 146 8 119 134
15 13 14 16 17 18 19 20 21 22 21 22 43 57 57 50 42 332 338 27 36 30 25 20 357 321 32 60 1 355 350 350 11 33 43 29 22 44 42 24 19 352 354 97 72 8 2 44 52 21 349 300 299 354 28 44 39 72 89 85 92 92 35 25 36 37 22 6 112 26 30 60 54 19 12 3 338 319 116 121 132 136 149 165 122 112 126
17 16 15 16 18 19 21 23 25 27 28 30 53 61 57 58 55 16 357 7 359 8 10 0 359 17 37 60 7 1 18 33 20 2 8 25 19 19 39 28 24 4 305 146 62 1 7 39 22 345 357 344 316 359 46 35 16 28 87 73 98 110 44 1 63 54 30 14 18 75 81 78 55 34 17 6 3 9 68 83 29 242 174 149 126 112 99
18 18 16 16 17 19 22 25 28 33 33 34 56 65 58 68 74 44 54 71 14 354 338 328 4 25 25 36 24 13 23 32 21 347 339 18 11 12 46 19 13 22 31 75 64 15 22 49 22 350 2 0 352 13 41 11 6 20 72 41 69 111 84 323 110 61 25 14 8 42 80 87 59 40 25 25 42 49 64 71 54 73 76 88 111 106 88
19 18 18 17 16 18 21 25 30 36 38 40 55 61 54 63 67 43 63 64 23 6 358 340 12 26 17 25 16 11 21 18 9 10 22 19 355 6 34 355 350 34 49 63 84 41 5 6 350 337 355 3 22 36 51 352 354 4 61 40 10 102 155 188 103 57 0 356 5 19 50 70 59 41 26 45 65 59 61 76 76 79 83 88 101 100 91
20 18 18 17 16 16 19 24 31 36 41 45 50 51 48 53 58 53 76 50 1 3 6 357 30 27 12 11 354 4 16 357 345 28 48 46 24 351 341 324 314 27 44 49 59 8 314 258 264 270 271 314 336 1 16 351 340 356 33 34 352 108 140 155 111 107 274 307 21 30 47 51 28 356 348 12 54 72 70 76 40 86 125 125 114 107 116
21 19 19 17 17 17 17 22 30 36 41 46 46 44 40 44 55 61 84 68 8 5 357 2 35 39 4 359 344 345 352 345 347 53 45 31 27 4 339 320 317 32 34 19 342 320 302 279 280 278 264 273 284 288 301 301 295 331 22 39 32 141 149 153 156 170 196 152 123 89 68 45 321 293 328 3 44 91 91 63 17 0 133 138 126 121 130
21 20 20 18 17 18 18 23 30 35 40 42 42 41 37 39 50 51 82 96 14 3 8 21 29 18 352 354 345 329 347 355 7 29 9 1 11 17 15 8 23 68 15 338 323 318 309 298 304 295 266 268 272 280 60 83 60 1 304 55 81 144 152 151 159 167 153 136 123 123 165 190 255 327 291 276 342 81 94 75 27 9 62 96 87 108 125
22 21 20 19 19 20 23 28 32 35 39 40 40 41 36 35 46 51 70 100 18 356 33 48 25 348 344 353 357 356 354 352 351 354 323 323 360 20 26 24 29 3 338 333 333 332 322 343 63 80 64 145 133 96 72 62 47 33 42 77 115 129 130 128 115 112 127 129 128 152 188 213 340 348 301 229 156 113 101 82 52 45 98 112 111 117 128
23 21 20 21 22 24 28 34 37 38 40 40 40 39 35 33 45 60 70 86 39 355 26 37 9 5 1 4 6 354 354 359 359 10 21 346 359 19 24 20 356 334 336 340 346 351 14 123 48 69 69 83 125 78 55 47 36 33 33 24 60 132 128 111 87 85 126 150 166 176 201 322 0 26 71 122 138 136 108 80 56 42 74 116 121 123 129
22 21 21 23 25 28 31 37 42 42 40 40 38 36 35 34 42 70 80 87 77 10 19 343 354 2 5 10 5 346 1 10 12 28 22 5 359 3 7 5 355 346 345 345 350 5 66 120 14 111 117 306 210 75 52 51 38 31 27 19 33 117 122 113 103 85 139 150 163 146 350 299 149 101 109 133 141 182 119 88 75 35 23 116 124 127 134
23 22 22 24 29 32 32 37 45 46 43 42 38 36 38 38 44 79 95 99 108 39 30 20 330 336 341 0 9 8 11 10 1 351 1 9 11 3 3 5 1 359 1 2 9 28 52 353 27 141 151 186 195 176 36 58 44 38 35 30 43 66 63 115 155 163 114 132 141 131 218 230 173 132 122 1 355 277 249 113 107 73 74 133 130 134 144
22 22 23 26 31 34 34 35 43 49 50 48 43 41 44 46 53 79 97 94 106 47 19 14 359 353 349 8 22 27 19 356 344 331 347 4 2 356 3 12 12 9 14 25 47 38 27 40 62 124 113 8 298 15 24 13 28 47 38 37 45 50 45 65 114 109 135 155 167 178 184 208 59 96 70 340 318 243 216 167 148 140 155 156 143 138 147
21 22 23 25 31 36 35 34 39 49 53 51 50 49 50 54 64 79 87 85 87 80 38 33 31 27 24 18 19 19 3 351 359 10 352 343 340 342 355 11 21 19 19 28 60 31 48 65 43 73 82 12 329 324 9 13 19 2 2 24 37 35 29 45 90 96 109 121 141 217 205 31 8 346 325 318 303 187 187 202 169 150 165 165 146 131 129
21 24 24 24 30 36 36 35 37 46 56 56 57 58 56 58 67 77 85 88 89 76 55 53 47 42 45 41 29 21 7 358 2 337 313 319 331 334 342 359 14 14 16 28 80 39 50 58 33 55 66 11 329 316 359 19 31 359 343 5 34 34 24 29 109 113 93 105 123 259 282 166 281 312 325 326 223 185 210 217 133 134 153 147 127 116 112
20 24 26 25 28 34 37 36 36 44 60 65 65 66 63 62 66 74 82 88 91 85 70 66 60 56 56 52 46 42 35 27 21 12 329 346 347 335 332 2 12 4 8 29 60 39 47 63 34 16 27 24 20 29 28 26 13 351 346 14 36 39 37 32 78 103 88 104 111 6 275 144 322 319 332 352 194 195 172 112 121 131 139 133 120 113 107
18 21 27 26 27 32 37 38 37 41 58 72 70 68 66 63 62 68 79 87 90 87 77 70 65 60 56 50 45 41 37 32 26 21 35 339 344 342 345 41 2 353 4 26 37 34 35 52 32 352 25 36 19 40 77 66 34 8 1 27 31 17 19 71 76 64 108 111 103 183 195 56 356 323 319 3 343 137 121 119 126 129 129 127 121 111 102
15 17 23 27 27 31 36 39 39 41 52 71 76 71 72 71 67 66 75 86 91 87 78 72 67 59 53 49 46 41 37 35 29 22 12 1 5 14 113 4 348 355 12 13 34 51 12 25 31 13 42 25 351 29 103 95 78 41 10 37 51 13 2 126 124 335 287 134 112 126 320 347 342 320 109 90 106 122 122 121 126 129 128 125 116 106 95
12 13 18 24 27 29 34 40 43 44 50 64 79 82 80 76 69 67 71 78 87 91 86 77 68 59 52 48 47 47 44 39 36 29 23 29 39 51 76 55 13 28 17 358 46 71 15 15 44 43 63 34 24 64 62 47 92 40 2 6 44 26 24 61 67 52 44 58 80 80 5 25 66 94 104 106 112 116 112 109 113 116 114 108 104 101 83
8 10 12 19 25 28 35 42 46 47 49 57 75 91 89 77 66 67 72 77 86 92 85 74 68 59 51 47 45 49 46 40 40 36 32 41 55 54 50 42 34 35 26 20 36 65 13 29 33 53 67 35 23 67 71 63 68 33 17 47 60 49 27 34 84 103 86 64 59 49 49 74 88 98 107 110 109 105 97 95 93 84 73 74 76 67 42
0 6 7 13 18 25 37 49 54 52 48 51 60 68 75 73 65 68 76 78 86 93 81 66 58 48 44 44 46 48 43 39 42 43 41 44 52 53 45 38 34 34 29 27 36 71 90 86 107 68 64 29 336 38 65 67 63 34 45 79 67 21 18 62 113 132 118 103 120 134 98 93 97 107 116 116 114 111 100 81 68 57 45 27 13 7 355
343 354 2 8 11 19 33 52 65 62 52 51 54 55 64 74 64 67 79 79 82 93 92 60 51 50 53 53 50 47 40 36 40 46 48 48 48 49 45 35 32 33 30 30 41 59 66 70 83 90 83 39 336 6 59 56 52 27 28 73 47 21 41 86 115 110 56 111 142 157 156 164 173 152 143 142 141 135 121 99 85 65 23 353 341 332 323
320 320 344 355 2 12 27 49 67 69 62 57 54 54 66 74 67 69 82 86 84 86 96 76 59 61 62 55 47 43 38 34 39 48 57 53 44 39 33 26 28 32 31 35 45 55 67 80 59 59 75 30 1 38 77 45 64 51 38 55 30 357 96 116 110 101 84 92 141 167 188 223 216 199 186 178 171 164 159 155 150 19 317 303 301 302 303
296 269 282 330 347 2 23 54 75 76 71 66 62 58 61 69 77 79 75 81 93 88 80 86 76 69 64 54 47 41 34 28 32 45 51 41 27 23 21 18 24 33 34 39 47 49 59 81 62 46 51 24 35 60 47 52 120 126 84 89 347 237 149 129 114 130 132 159 175 173 165 205 203 199 193 186 185 190 195 198 212 242 267 274 280 286 291
287 245 231 251 312 341 22 73 101 98 84 74 69 65 62 67 79 80 68 68 83 94 101 103 90 85 77 62 47 31 20 18 22 30 30 24 17 18 20 20 31 40 38 41 51 44 40 58 62 52 51 60 74 71 27 72 113 46 82 92 329 175 157 157 156 153 139 189 180 175 148 39 166 189 192 193 198 202 205 213 230 246 260 268 271 279 289
288 235 220 227 250 233 162 123 122 117 100 81 76 74 70 67 69 70 67 67 75 84 97 101 81 66 70 60 44 28 19 19 21 14 13 25 27 22 23 30 42 44 36 39 53 48 30 38 48 47 46 56 79 44 18 83 106 27 98 101 21 133 156 155 101 115 76 156 179 180 155 54 124 171 184 193 204 213 223 238 252 256 261 264 265 275 287
290 231 211 213 217 195 176 149 125 109 96 95 94 89 83 67 55 52 55 63 74 79 82 91 102 87 66 56 42 27 21 22 17 11 19 47 37 20 23 35 43 42 35 36 39 29 26 45 63 73 67 66 92 98 82 150 211 342 189 182 131 125 141 124 87 103 106 129 168 180 175 103 141 166 185 207 222 233 241 253 260 257 255 256 263 277 286
301 229 203 202 203 186 174 155 127 100 87 87 89 99 101 54 23 24 34 47 68 84 79 81 107 112 76 54 37 22 15 15 18 25 40 42 19 14 25 36 36 30 22 21 29 37 43 45 52 77 77 61 76 112 124 165 224 317 193 182 170 134 127 116 94 101 114 130 155 172 179 171 172 182 204 219 224 234 247 253 250 248 254 261 269 278 279
319 222 196 191 186 178 172 158 135 113 98 84 72 66 57 13 357 5 25 50 68 87 97 92 95 77 10 12 20 10 4 9 19 31 37 22 10 10 19 16 13 14 14 24 61 49 31 19 29 54 95 64 74 135 142 150 210 256 211 187 186 171 146 136 117 112 124 136 146 154 169 193 203 210 221 224 227 239 247 243 233 249 269 272 269 269 267
353 215 189 178 166 171 172 164 151 138 117 77 42 30 18 355 340 340 352 81 88 96 88 87 111 103 334 354 37 11 0 3 13 22 25 15 11 14 14 7 12 37 38 37 32 355 356 13 30 43 94 69 63 134 197 225 230 241 252 211 197 191 181 173 161 144 146 159 161 156 171 196 218 233 233 235 240 235 229 227 240 262 272 265 262 269 275
12 65 172 157 138 154 164 166 165 158 114 37 10 6 360 346 331 312 195 154 127 119 90 73 113 153 344 21 84 19 7 3 6 12 14 8 7 13 12 3 14 66 39 21 10 343 1 11 15 112 108 52 27 331 234 259 258 256 262 244 206 197 197 202 201 193 192 197 205 218 222 217 247 245 232 232 238 226 218 234 248 253 262 268 276 283 283
25 53 140 140 122 129 153 170 176 175 146 16 338 343 345 342 334 280 179 166 143 140 111 73 101 126 13 53 69 355 358 4 3 1 356 355 3 14 10 1 20 60 9 358 11 65 15 355 318 229 90 356 333 225 226 270 285 283 272 247 212 199 200 208 216 218 220 220 225 240 263 273 270 246 224 226 230 218 216 234 240 244 263 278 287 294 294
48 72 121 139 125 111 122 165 189 206 220 231 300 330 337 341 20 122 153 154 113 113 123 111 113 127 124 138 304 334 357 13 4 357 355 351 357 9 9 6 23 354 341 340 32 44 348 332 307 295 53 6 234 230 257 281 293 300 295 266 228 213 205 194 188 202 215 226 233 239 257 275 271 237 216 220 221 213 215 231 234 236 259 284 301 312 310
65 84 106 117 100 69 6 219 205 209 216 248 302 326 338 359 115 120 130 138 82 76 104 130 138 156 173 177 281 325 356 4 354 0 16 2 343 349 7 15 356 336 336 353 59 2 340 336 336 259 193 242 262 279 300 303 295 290 287 270 232 219 210 193 179 184 194 212 230 242 259 270 261 232 215 216 216 213 217 228 229 231 266 302 313 318 316
68 79 96 83 28 346 257 200 184 195 235 289 313 329 3 60 97 100 71 46 60 55 49 60 85 197 191 191 320 325 346 8 9 26 25 3 348 356 16 17 1 348 338 276 332 339 337 12 40 299 253 266 277 308 333 330 306 279 259 223 199 208 210 208 208 203 190 200 225 244 264 271 259 236 220 215 213 214 218 223 226 247 292 311 316 318 317
2 343 295 289 323 301 275 270 265 262 275 299 316 332 57 48 64 62 14 14 29 34 27 31 31 318 218 228 311 324 327 1 20 37 14 6 9 21 15 10 10 5 356 288 343 347 342 8 20 338 286 270 291 345 352 345 320 264 212 185 175 185 202 210 218 227 228 232 244 261 278 276 257 233 218 211 208 207 209 214 234 282 304 312 319 322 321
349 9 23 1 333 300 297 306 307 279 257 90 101 106 57 45 50 20 355 16 38 29 21 17 2 346 311 267 282 332 344 347 351 346 351 10 6 346 1 26 10 355 330 279 340 347 340 311 341 329 291 270 313 346 352 350 335 183 170 167 163 164 180 196 214 234 246 265 294 304 300 285 247 213 199 196 195 195 196 211 263 294 304 317 328 329 328
18 31 28 15 17 28 19 25 59 95 116 108 82 57 42 48 36 14 25 60 42 1 11 9 359 7 16 5 345 347 354 9 10 351 342 357 347 329 317 330 349 358 216 267 330 355 37 58 335 287 266 288 322 339 347 357 56 150 159 161 159 159 167 179 196 216 234 304 323 312 297 263 214 192 183 182 187 194 204 235 278 293 305 321 329 332 334
18 13 9 23 54 79 89 82 73 74 83 78 61 35 349 357 6 10 38 67 47 354 7 7 0 27 41 37 34 42 56 53 34 11 356 356 349 343 34 8 3 26 205 286 336 12 78 295 299 249 270 309 333 342 347 2 103 152 163 165 165 165 165 168 177 181 152 10 336 319 292 228 200 193 192 197 204 213 229 256 279 292 306 318 325 332 337
10 2 13 66 87 91 98 76 48 43 59 62 53 27 344 358 22 15 8 24 21 352 358 354 332 12 35 31 39 53 57 41 8 356 347 285 332 36 62 56 11 349 316 327 4 75 204 252 228 255 295 323 344 354 357 3 145 175 177 175 173 171 168 171 178 176 146 53 347 331 296 225 204 202 210 224 234 240 249 263 277 294 308 316 322 329 335
4 5 39 109 82 67 81 40 22 38 69 59 61 106 90 10 30 185 348 357 341 337 349 354 299 157 36 35 214 203 152 24 352 328 249 231 39 59 72 320 283 301 322 329 339 304 279 248 243 267 293 320 351 11 12 9 359 197 195 194 192 189 191 199 208 207 187 179 323 326 304 242 217 213 221 236 247 248 248 257 277 297 311 319 321 327 336
4 16 58 90 25 19 25 326 12 42 94 174 131 152 154 112 142 179 310 334 323 323 332 335 323 325 330 279 252 267 237 270 318 284 198 81 44 152 215 242 34 14 354 358 343 312 291 248 251 269 290 328 7 16 11 4 357 300 219 216 217 217 219 226 234 235 226 219 247 296 300 265 235 227 229 236 238 235 236 253 282 299 312 322 326 329 337
16 31 61 79 7 9 46 102 29 24 164 184 171 146 146 175 224 258 309 321 319 318 319 317 316 319 310 273 267 297 260 240 272 208 136 125 249 240 214 228 347 29 30 5 296 276 254 250 271 280 287 349 10 7 356 344 340 332 290 252 241 240 242 245 249 251 248 241 240 256 277 275 256 241 233 227 224 226 235 256 281 298 309 320 330 337 343
40 48 59 73 21 354 35 118 153 138 143 154 155 141 131 270 292 311 326 333 348 356 348 335 323 319 316 281 265 285 284 226 234 214 170 182 245 343 49 9 274 219 151 223 254 254 236 253 281 293 295 313 336 345 343 333 327 322 313 299 278 261 258 261 263 264 262 254 247 248 259 273 268 251 235 225 221 225 235 253 273 291 304 318 334 345 352
77 72 64 94 183 215 112 124 132 137 148 160 163 146 110 320 327 344 350 359 19 20 11 3 7 307 322 9 53 317 17 85 219 233 184 116 280 330 17 350 305 258 205 216 232 235 247 277 298 305 293 280 294 316 331 332 326 320 314 308 294 274 263 264 268 273 277 274 263 253 252 261 266 259 245 233 225 222 229 247 266 282 296 311 329 345 356
67 83 113 142 167 186 169 148 126 139 171 178 183 182 338 325 333 348 3 12 15 12 3 359 6 281 286 321 75 204 236 155 219 274 57 93 214 206 126 148 269 251 226 220 229 245 271 300 317 309 280 264 269 295 317 322 322 318 313 308 299 282 266 260 262 267 277 285 280 262 250 253 258 256 250 241 230 221 223 238 256 272 288 301 315 334 350
285 187 164 165 171 179 176 169 148 71 172 185 208 267 309 314 323 338 351 334 342 352 347 322 274 231 245 286 38 321 258 205 179 166 194 211 196 163 176 226 237 223 209 225 236 251 282 313 323 311 289 270 260 271 298 311 314 310 306 301 295 284 270 261 256 256 263 276 282 265 248 247 251 252 252 250 238 225 222 230 244 261 278 291 303 320 335
231 218 212 214 212 195 177 166 164 230 233 252 282 299 300 300 308 320 331 328 333 342 322 259 220 130 131 204 223 239 206 184 174 190 241 223 187 158 194 232 229 219 235 250 260 274 297 312 315 314 308 293 270 264 281 300 306 306 302 297 291 282 271 261 253 247 248 255 260 256 249 249 249 248 250 250 243 233 229 231 237 248 263 276 289 306 319
226 217 231 237 230 220 214 218 238 252 258 269 283 289 290 298 308 314 312 308 304 274 225 204 169 148 216 233 207 159 157 182 222 270 250 227 202 189 210 238 251 255 261 270 282 293 301 304 306 308 309 302 286 274 280 292 299 300 300 297 292 284 274 263 254 247 243 243 245 247 252 254 249 243 242 242 241 239 237 235 235 239 249 261 275 289 301